Flag for France Weather past 2 weeks in Gustavia, Saint Barthélemy, France

Now
82 °F

Scattered clouds.


Feels Like: 85 °F
Forecast: 76 / 80 °F
Wind: 16 mph from Northeast

Location: Juliana Airport - Saint Maarten

Current Time: Feb 1, 2015 at 11:40:47 AM

Latest Report: Feb 1, 2015 at 11:00 AM


Visibility: N/A

Pressure: 30.09 "Hg

Humidity: 62%

Dew point: 68 °F

Location of GustaviaLocation

Historic Weather in Gustavia — Graph

°F

Gustavia temperature yesterday

Maximum temperature yesterday: 84 °F (at 1:00 PM)
Minimum temperature yesterday: 75 °F (at 2:00 AM)
Average temperature yesterday: 79 °F

Past Weeks' High & Low Weather Summary

 TemperatureHumidityPressure
High84 °F (Jan 17, 2:00 PM)94% (Jan 18, 7:00 AM)30.12 "Hg (Jan 18, 7:00 AM)
Low73 °F (Jan 18, 5:00 AM)58% (Jan 29, 1:00 PM)29.95 "Hg (Jan 18, 3:00 PM)
Average79 °F74%30.00 "Hg
* Reported Jan 17 10:00 AM — Feb 1 10:00 AM, Gustavia, Weather by CustomWeather, © 2014

Note: Actual official high and low records may vary slightly from our data, if they occured in-between our weather recording intervals... More about our weather records

Advertising

Gustavia weather history for previous 24 hours

 ConditionsComfort  
Time TempWeatherWind HumidityBarometerVisibility
10:00 AM
Feb 1
81 °FScattered clouds.15 mph66%30.12 "HgN/A
9:00 AM79 °FScattered clouds.14 mph74%30.09 "HgN/A
8:00 AM77 °FBroken clouds.10 mph79%30.07 "HgN/A
7:00 AM77 °FScattered clouds.14 mph74%30.07 "HgN/A
6:00 AM77 °FPassing clouds.13 mph74%30.04 "HgN/A
5:00 AM77 °FPassing clouds.12 mph74%30.01 "HgN/A
4:00 AM77 °FPassing clouds.12 mph74%30.01 "HgN/A
3:00 AM77 °FPassing clouds.13 mph79%30.01 "HgN/A
2:00 AM77 °FPassing clouds.12 mph79%30.04 "HgN/A
1:00 AM77 °FPassing clouds.10 mph79%30.04 "HgN/A
12:00 AM77 °FPassing clouds.10 mph79%30.04 "HgN/A
11:00 PM
Jan 31
77 °FPassing clouds.10 mph83%30.07 "HgN/A
10:00 PM77 °FPassing clouds.9 mph79%30.07 "HgN/A
9:00 PM77 °FPassing clouds.9 mph79%30.04 "HgN/A
8:00 PM79 °FSprinkles. Passing clouds.8 mph79%30.01 "HgN/A
7:00 PM79 °FPassing clouds.8 mph74%30.01 "HgN/A
6:00 PM79 °FScattered clouds.8 mph74%29.98 "HgN/A
5:00 PM81 °FScattered clouds.10 mph70%29.98 "HgN/A
4:00 PM82 °FScattered clouds.10 mph66%29.98 "HgN/A
3:00 PM81 °FScattered clouds.8 mph70%29.98 "HgN/A
2:00 PM82 °FTornado. Scattered clouds.5 mph66%29.98 "HgN/A
1:00 PM84 °FScattered clouds.8 mph62%30.01 "HgN/A
12:00 PM82 °FScattered clouds.7 mph66%30.01 "HgN/A
11:00 AM82 °FScattered clouds.5 mph66%30.01 "HgN/A
Weather by CustomWeather, © 2014

See weather overviewHow to use our weather pages